VVA015 SVMI-SVBC

Flight info

Callsign VVA015
Flight time N/A
Altitude 19000
Route OSMAR2 OSMAR W20 CBC A552 MEXOT
Aircraft B350/L-SBGRW/S

Departure

Time 2026-04-29 01:20
Airport Maiquetía Simón Bolívar International Airport (SVMI)

Arrival

Time N/A
Airport General José Antonio Anzoategui International Airport (SVBC)
Time Latitude Longitude Altitude Speed Heading
2026-04-29 01:03 10.60071 -67.00074 239 ft 0 kts 175°
2026-04-29 01:13 10.60040 -67.00067 239 ft 6 kts 130°
2026-04-29 01:13 10.60033 -67.00032 239 ft 12 kts 91°
2026-04-29 01:13 10.60037 -66.99948 239 ft 17 kts 85°
2026-04-29 01:13 10.60053 -66.99904 239 ft 11 kts 13°
2026-04-29 01:14 10.60119 -66.99899 239 ft 8 kts 19°
2026-04-29 01:14 10.60139 -66.99869 239 ft 9 kts 89°
2026-04-29 01:14 10.60140 -66.99827 239 ft 7 kts 86°
2026-04-29 01:14 10.60091 -66.99722 239 ft 17 kts 176°
2026-04-29 01:15 10.60066 -66.99778 239 ft 6 kts 342°
2026-04-29 01:15 10.60070 -66.99779 240 ft 0 kts 351°
2026-04-29 01:16 10.60137 -66.99772 239 ft 14 kts 28°
2026-04-29 01:16 10.60167 -66.99698 239 ft 11 kts 98°
2026-04-29 01:16 10.60107 -66.99636 239 ft 14 kts 171°
2026-04-29 01:16 10.60009 -66.99633 239 ft 0 kts 173°
2026-04-29 01:17 10.60006 -66.99632 239 ft 4 kts 176°
2026-04-29 01:18 10.59937 -66.99636 239 ft 11 kts 180°
2026-04-29 01:18 10.59908 -66.99610 239 ft 0 kts 68°
2026-04-29 01:19 10.59908 -66.99609 239 ft 0 kts 68°
2026-04-29 01:19 10.59998 -66.99256 239 ft 106 kts 78°
2026-04-29 01:19 10.60219 -66.98307 290 ft 162 kts 76°
2026-04-29 01:20 10.60572 -66.97118 644 ft 181 kts 71°
2026-04-29 01:20 10.60973 -66.95937 1498 ft 160 kts 71°
2026-04-29 01:20 10.61308 -66.94960 2699 ft 132 kts 71°
2026-04-29 01:20 10.61585 -66.94146 3795 ft 119 kts 70°
2026-04-29 01:21 10.61870 -66.93280 4500 ft 138 kts 69°
2026-04-29 01:21 10.62154 -66.92367 5485 ft 132 kts 68°
2026-04-29 01:21 10.62455 -66.91406 6191 ft 154 kts 69°
2026-04-29 01:21 10.62781 -66.90350 7096 ft 151 kts 70°
2026-04-29 01:22 10.63089 -66.89330 8000 ft 155 kts 70°
2026-04-29 01:22 10.63420 -66.88238 8822 ft 160 kts 70°
2026-04-29 01:22 10.63738 -66.87180 9777 ft 156 kts 70°
2026-04-29 01:22 10.64072 -66.86078 10552 ft 167 kts 70°
2026-04-29 01:23 10.64405 -66.84978 11469 ft 162 kts 70°
2026-04-29 01:23 10.64739 -66.83872 12291 ft 168 kts 70°
2026-04-29 01:23 10.65093 -66.82703 13121 ft 170 kts 70°
2026-04-29 01:23 10.65439 -66.81557 14004 ft 170 kts 70°
2026-04-29 01:24 10.65796 -66.80376 14774 ft 176 kts 70°
2026-04-29 01:24 10.66152 -66.79198 15626 ft 175 kts 70°
2026-04-29 01:24 10.66516 -66.77992 16428 ft 179 kts 70°
2026-04-29 01:24 10.66885 -66.76773 17199 ft 182 kts 70°
2026-04-29 01:25 10.67259 -66.75534 18020 ft 182 kts 70°
2026-04-29 01:25 10.67635 -66.74289 18755 ft 187 kts 70°
2026-04-29 01:25 10.68030 -66.72986 19311 ft 206 kts 70°
2026-04-29 01:25 10.68511 -66.71420 19217 ft 249 kts 71°
2026-04-29 01:26 10.69052 -66.69649 19123 ft 274 kts 71°
2026-04-29 01:26 10.69626 -66.67754 19066 ft 285 kts 71°
2026-04-29 01:26 10.70218 -66.65788 19046 ft 290 kts 71°
2026-04-29 01:26 10.70806 -66.63824 19040 ft 292 kts 71°
2026-04-29 01:27 10.71411 -66.61807 19038 ft 294 kts 71°
2026-04-29 01:27 10.72002 -66.59822 19037 ft 295 kts 73°
2026-04-29 01:27 10.72303 -66.57759 19037 ft 296 kts 88°
2026-04-29 01:27 10.72209 -66.55645 19039 ft 297 kts 97°
2026-04-29 01:28 10.71896 -66.53571 19038 ft 297 kts 102°
2026-04-29 01:28 10.71458 -66.51517 19038 ft 297 kts 104°
2026-04-29 01:28 10.70948 -66.49487 19037 ft 297 kts 106°
2026-04-29 01:28 10.70393 -66.47461 19037 ft 297 kts 107°
2026-04-29 01:29 10.69806 -66.45420 19037 ft 297 kts 108°
2026-04-29 01:29 10.69209 -66.43400 19037 ft 297 kts 108°
2026-04-29 01:29 10.68606 -66.41398 19037 ft 297 kts 108°
2026-04-29 01:29 10.67994 -66.39387 19037 ft 297 kts 109°
2026-04-29 01:30 10.67375 -66.37366 19037 ft 297 kts 109°
2026-04-29 01:30 10.66751 -66.35334 19037 ft 297 kts 109°
2026-04-29 01:30 10.66137 -66.33344 19037 ft 297 kts 109°
2026-04-29 01:30 10.65511 -66.31315 19037 ft 297 kts 109°
2026-04-29 01:31 10.64890 -66.29306 19037 ft 297 kts 109°
2026-04-29 01:31 10.64480 -66.27981 19037 ft 297 kts 109°
2026-04-29 01:31 10.63850 -66.25943 19037 ft 297 kts 109°
2026-04-29 01:31 10.63232 -66.23946 19037 ft 298 kts 109°
2026-04-29 01:32 10.62600 -66.21905 19037 ft 298 kts 109°
2026-04-29 01:32 10.61987 -66.19928 19037 ft 298 kts 109°
2026-04-29 01:32 10.61359 -66.17901 19037 ft 298 kts 109°
2026-04-29 01:32 10.60736 -66.15891 19037 ft 298 kts 109°
2026-04-29 01:33 10.60109 -66.13870 19037 ft 298 kts 109°
2026-04-29 01:33 10.59484 -66.11853 19037 ft 298 kts 109°
2026-04-29 01:33 10.58866 -66.09862 19037 ft 298 kts 109°
2026-04-29 01:33 10.58289 -66.07810 19037 ft 298 kts 104°
2026-04-29 01:34 10.57885 -66.05760 19037 ft 298 kts 100°
2026-04-29 01:34 10.57579 -66.03651 19037 ft 299 kts 98°
2026-04-29 01:34 10.57334 -66.01535 19037 ft 299 kts 96°
2026-04-29 01:34 10.57131 -65.99446 19037 ft 299 kts 96°
2026-04-29 01:35 10.56948 -65.97340 19037 ft 299 kts 95°
2026-04-29 01:35 10.56780 -65.95232 19037 ft 299 kts 95°
2026-04-29 01:35 10.56632 -65.93277 19037 ft 299 kts 95°